Regional Weather Roundup
Issued by NWS Charleston, SC

Current Version | Previous Version | Text Only | Print | Product List | Glossary Off
Versions: 1 2 3 4 5 6 7 8 9 10 11 12 13 14 15 16 17 18 19 20 21 22 23 24 25 26 27 28 29 30 31 32 33 34 35 36 37 38 39 40 41 42 43 44 45 46 47 48 49 50

000
ASUS42 KCHS 020127
RWRCHS

REGIONAL WEATHER ROUNDUP
NATIONAL WEATHER SERVICE CHARLESTON SC
900 PM EDT SAT AUG 01 2015

NOTE: "FAIR" INDICATES FEW OR NO CLOUDS BELOW 12,000 FEET WITH NO
SIGNIFICANT WEATHER AND/OR OBSTRUCTIONS TO VISIBILITY.

NOT ALL STATIONS ARE QUALITY CONTROLLED BY THE NATIONAL
WEATHER SERVICE. USE DATA WITH CAUTION...ESPECIALLY
DEWPOINT OBSERVATIONS.

SCZ027-030-031-034>040-042>050-020200-
...SOUTHEAST SOUTH CAROLINA...

CITY           SKY/WX    TMP DP  RH WIND       PRES   REMARKS
N CHARLESTON   PTCLDY    78  73  84 S5        29.90R
WATERFRONT PRK   N/A     80  76  87 VRB2      29.88R
MOUNT PLEASANT LGT RAIN  77  75  94 CALM      29.91R
JOHNS ISLAND   FAIR      79  75  89 CALM      29.91S
PINOPOLIS      NOT AVBL
MONCKS CORNER  FAIR      81  73  78 CALM      29.91R
SUMMERVILLE    FAIR      77  75  94 CALM      29.92R
BEAUFORT MCAS  PTCLDY    81  77  88 SE3       29.90R
BEAUFORT ARPT  FAIR      79  77  94 CALM      29.90S
HILTON HEAD IS PTCLDY    81  77  89 CALM      29.91S
WALTERBORO     PTCLDY    79  75  89 CALM      29.92R
ALLENDALE      FAIR      77  73  88 CALM      29.91R

...SOUTHERN MIDLANDS AND PEE DEE...

CITY           SKY/WX    TMP DP  RH WIND       PRES   REMARKS
GEORGETOWN     NOT AVBL
KINGSTREE      NOT AVBL
ORANGEBURG     CLEAR     80  70  71 S8        29.91R
BARNWELL       FAIR      81  73  78 S5        29.93R
AIKEN          FAIR      79  68  69 S5        29.95R
MANNING        RAIN      82  72  69 S7        29.90R
COLUMBIA       MOCLDY    88  72  58 S5        29.88R HX  94
SUMTER         CLEAR     83  73  70 S2        29.87R
FLORENCE       MOCLDY    86  73  65 S7        29.88R HX  93
MYRTLE BEACH   CLEAR     82  72  69 SW8       29.91R
N MYRTLE BEACH CLEAR     81  74  79 SW10      29.90R

$$

GAZ063-065-086>088-099>101-113>116-118-119-134>141-150-020200-
...SOUTHEAST GEORGIA...

CITY           SKY/WX    TMP DP  RH WIND       PRES   REMARKS
SAVANNAH ARPT  MOCLDY    79  75  87 SE6       29.89S
HUNTER AAF     MOCLDY    81  77  89 SE6       29.87R
FORT STEWART   NOT AVBL
STATESBORO     MOCLDY    76  76 100 CALM      29.91R
SYLVANIA       PTCLDY    77  76  97 CALM      29.92R
CLAXTON        NOT AVBL

...CSRA...CENTRAL AND FAR SOUTHEAST GEORGIA...

CITY           SKY/WX    TMP DP  RH WIND       PRES   REMARKS
THOMSON        PTCLDY    80  74  81 SE6       29.95R
AUGUSTA-BUSH   MOCLDY    81  72  74 S3        29.89R
AUGUSTA-DANIEL MOCLDY    83  71  67 S7        29.91R
SWAINSBORO     FAIR      81  73  78 NE3       29.92R
VIDALIA        MOCLDY    75  73  94 NE3       29.91R
EASTMAN        FAIR      78  78 100 CALM      29.92F
HAZLEHURST     LGT RAIN  77  77 100 CALM      29.88F
ALMA           CLOUDY    75  72  90 CALM      29.88R
WAYCROSS       CLOUDY    82  79  91 S6        29.88F HX  92
JESUP          MOCLDY    81  77  89 CALM      29.89R
BAXLEY         LGT RAIN  77  73  88 CALM      29.88S
BRUNSWICK      CLOUDY    81  73  78 SW7       29.90R
SAINT SIMONS   MOCLDY    80  74  81 S9        29.88R

$$

SCZ027-028-034-036>038-045-046-048>050-GAZ119-141-020200-
...LAKE AND SUPPLEMENTAL COASTAL OBSERVATIONS...

STATION/POSITION TIME  TEMP    WIND        PRES    WAVE   SWELL
                       AIR SEA DIR/SP/G            HT/PER HT/PER/DIR
                 (UTC) (F)     (DEG/KT/KT) (MB)    (FT/S) (FT/S/D)
UPR LAKE MARION  NOT AVBL
WINYAH BAY       0045   81     210/  5     1012.0R
LAKE MURRAY      0000   92      CALM  /  2 1010.8S
ACE BASIN NERRS  NOT AVBL
FORT PULASKI     0100   81 86  140/  4/  6 1012.7R
SAPELO ISLAND    0100   82     170/  8     1012.0S

$$

ANZ835-935-AMZ111-154-330-350-352-354-370-450-454-472-020200-
...C-MAN AND BUOY OBSERVATIONS...

STATION/POSITION TIME  TEMP    WIND        PRES    WAVE   SWELL
                       AIR SEA DIR/SP/G            HT/PER HT/PER/DIR
                 (UTC) (F)     (DEG/KT/KT) (MB)    (FT/S) (FT/S/D)
BUOY 41004       0050   80 84  230/  2/  2 1012.2R   3/ 7   3/ 7
BUOY 41008       0050   81 83  180/ 12/ 14 1012.2R   3/ 5   2/150/ 5
FOLLY BEACH CMAN 0100   80     190/  4/  5 1012.7R
CAPERS NEARSHORE 0008   81     200/  6/  8 1012.3S
FRIPP NEARSHORE  0000   81     160/ 12/ 14 1011.7S


STATION/POSITION TIME  TEMP    WIND        PRES    WAVE   SWELL
                       AIR SEA DIR/SP/G            HT/PER HT/PER/DIR
                 (UTC) (F)     (DEG/KT/KT) (MB)    (FT/S) (FT/S/D)
5E ST. MARYS GA  0021      83                N/A     3/ 5
FRYING PAN BUOY  0050   82 83  200/ 12/ 14 1013.3R   4/ 7   3/170/ 7
BUOY 41025       0050   83 85  230/ 16/ 17 1012.3R   3/ 8   2/170/ 8
CAPE LOOKOUT NC  0100   80     240/  6/  8 1012.3R
BUOY 41002       0050   83 81  210/ 14/ 19 1015.2R   7/ 7   5/250/ 7
BUOY 41010       0020   76 84  240/ 17/ 21 1017.0R
ST AUGUSTINE FL  0100   76 81  200/  9/ 10 1013.7R


$$



USA.gov is the U.S. government's official web portal to all federal, state and local government web resources and services.